Location: Mason Neck State Park
(38.6428°N, 77.1981°W)
Time: 03:08:06
(UTC-05:00)

Daily predictions for brighter satellites

Satellite Brightness Start Highest point End
(mag) Time Altitude Azimuth Time Altitude Azimuth Time Altitude Azimuth
SL-16 R/B 4.4 03:35:20 21° E 03:35:20 21° E 03:38:51 10° NE
USA 215 4.0 03:47:30 10° NE 03:53:25 48° ESE 03:53:25 48° ESE
Cosmos 2237 Rocket 4.5 04:10:24 14° NNE 04:10:24 14° NNE 04:11:09 10° NNE
CENTAUR R/B 3.1 04:11:32 49° NE 04:11:32 49° NE 04:16:25 10° NE
Centaur D-1AR AC-39 4.5 04:15:18 15° S 04:15:18 15° S 04:16:27 10° SSE
Thor Agena Rocket 4.2 04:36:24 10° SSE 04:39:44 43° SSE 04:39:44 43° SSE
Lacrosse 5 4.3 04:47:51 10° SSE 04:51:37 21° ESE 04:55:23 10° ENE
Cosmos 2333 Rocket 4.3 04:56:52 13° N 04:56:52 13° N 04:57:34 10° N
Meteor 1-14 Rocket 4.0 04:48:32 10° SSW 04:54:14 79° W 04:59:51 10° N
Cosmos 2297 3.5 04:54:45 63° NNW 04:55:43 87° WSW 05:01:23 10° SSE
COSMO-SKYMED 1 4.0 04:51:51 10° SE 04:55:50 37° ENE 04:59:03 15° N
Cosmos 921 Rocket 4.3 04:55:07 23° NNE 04:57:23 39° ENE 05:01:38 10° SE
DELTA 2 R/B (1) 3.7 05:01:35 54° SW 05:02:04 57° SSW 05:07:30 10° SE
Celestis-02/Orion 38 4.4 05:06:22 10° SSE 05:11:31 79° WSW 05:13:26 40° NW
Cosmos 2278 Rocket 3.6 05:14:01 21° SW 05:14:01 21° SW 05:16:27 10° SSW
Cosmos 2074 Rocket 4.0 05:05:27 10° S 05:11:43 86° E 05:18:01 10° N
Okean 1 4.0 05:09:30 20° N 05:12:05 54° E 05:16:01 10° SSE
Cosmos 923 Rocket 4.4 05:13:21 42° NW 05:13:21 42° NW 05:17:28 10° N
USA 32 4.0 05:08:56 10° N 05:14:11 82° E 05:19:25 10° S
Meteor 1-25 Rocket 4.2 05:11:43 10° SSW 05:17:33 76° W 05:23:24 10° N
SL-16 R/B 2.3 05:17:23 44° W 05:18:21 48° WNW 05:23:50 10° NNE
Ariane Rocket 3.7 05:16:42 10° NNE 05:21:40 55° E 05:26:37 10° S
Cosmos 1300 Rocket 4.4 05:17:34 10° SSE 05:21:51 50° E 05:26:08 10° NNE
CRYOSAT 2 4.4 05:18:55 10° S 05:23:47 80° E 05:28:41 10° N
Cosmos 2184 Rocket 3.8 05:19:16 10° S 05:25:24 78° W 05:31:37 10° N
Cosmos 292 Rocket 3.8 05:23:40 28° SW 05:26:00 52° WNW 05:30:44 10° N
Cosmos 1812 2.6 05:28:27 54° WNW 05:28:57 60° W 05:32:45 10° S
Cosmos 1346 Rocket 2.8 05:28:50 17° N 05:31:46 77° E 05:35:41 10° SSE
GPS 2-05 Rocket1 3.4 05:32:52 42° SW 05:33:38 52° S 05:37:10 10° ESE
Iridium 2 3.7 05:30:26 10° SSW 05:34:08 52° W 05:35:36 32° NNW
USA 215 3.5 05:30:31 10° NE 05:36:45 49° NW 05:40:47 22° W
CZ-4 R/B 3.7 05:36:58 10° NE 05:40:20 26° E 05:43:39 10° SSE
Cosmos 2154 Rocket 4.2 05:34:31 10° S 05:40:42 72° E 05:46:53 10° NNE
Cosmos 1680 Rocket 4.0 05:38:54 25° WSW 05:41:01 34° WNW 05:45:46 10° N
SL-08 ROCKET BODY 4.4 05:35:17 10° SSW 05:41:07 53° W 05:46:55 10° N
SKYMED 2 3.5 05:39:32 10° S 05:43:50 61° W 05:47:40 13° NNW
Cosmos 2151 Rocket 4.0 05:40:33 10° SSW 05:44:45 38° WNW 05:48:57 10° N
Cosmos 2237 Rocket 4.1 05:52:17 11° NNW 05:52:17 11° NNW 05:52:51 10° NNW
Radarsat Rocket 4.5 05:43:37 10° N 05:50:30 64° WNW 05:58:17 10° SSW
Meteor 1-28 Rocket 3.1 05:50:11 10° SSE 05:53:58 89° W 05:57:47 10° NNW
CSL-04 DEB 4.4 05:51:00 10° N 05:55:00 61° WNW 05:59:04 10° SSW
Cosmos 1536 3.5 05:51:19 10° S 05:55:13 57° E 05:59:09 10° NNE
CZ-3 R/B 3.4 05:49:18 10° SW 05:56:34 21° S 05:59:59 10° SE
Cosmos 1633 2.5 05:53:05 10° S 05:56:44 86° W 06:00:24 10° N
Meteor 2-4 Rocket 4.3 05:55:08 10° N 06:00:33 58° ENE 06:06:05 10° SSE
CENTAUR R/B 3.7 05:58:46 19° WNW 06:01:12 23° NW 06:06:34 10° NNE
Abrixas rocket 3.1 05:59:01 10° SW 06:02:18 52° SE 06:05:35 10° ENE
Tiangong 2 1.9 06:05:56 22° WNW 06:07:26 37° N 06:10:25 10° ENE
Helios 1B rocket 3.8 06:05:09 10° SE 06:09:01 40° ENE 06:12:54 10° N
Cosmos 1536 Rocket 4.5 06:06:16 12° NW 06:09:41 28° W 06:13:25 10° SSW
CSL-04 Debris 4.1 06:05:15 10° N 06:10:43 77° WNW 06:16:11 10° SSW
Gbstr 26 Del rocket 4.4 06:08:43 16° W 06:10:58 23° SW 06:14:12 10° S
CSL-04 Rocket 3.7 06:05:30 10° N 06:11:00 65° WNW 06:16:26 10° SSW
CZ-2C R/B 3.5 06:06:22 10° NNE 06:11:27 52° E 06:16:22 10° S
Cosmos 1603 4.0 06:10:23 10° SW 06:15:48 44° WNW 06:21:14 10° N
YAOGAN 1 3.6 06:12:48 10° NNE 06:17:01 51° E 06:21:14 10° S
Cosmos 2369 Rocket 2.5 06:14:41 10° NNW 06:20:25 70° ENE 06:26:05 10° SSE
Cosmos 44 3.8 06:17:49 10° SSW 06:23:11 75° ESE 06:28:26 10° NE
SMAP 3.5 06:20:12 10° NNE 06:24:51 68° ESE 06:29:29 10° S
Okean 1 Rocket 3.6 06:23:22 10° SW 06:27:25 35° WNW 06:31:29 10° N
Cosmos 1025 Rocket 3.0 06:23:10 10° N 06:27:34 83° W 06:31:56 10° S
COSMO-SKYMED 1 4.1 06:29:11 10° SW 06:32:06 18° W 06:35:02 10° NW
PSLV R/B 3.2 06:29:19 11° WNW 06:32:35 88° NNE 06:35:57 10° ESE
Cosmos 1544 Rocket 4.1 06:28:59 10° S 06:33:15 63° E 06:37:35 10° NNE
Lacrosse 5 1.9 06:29:09 10° SW 06:34:11 60° NW 06:39:15 10° NE
PAYLOAD A 4.2 06:30:11 10° N 06:35:28 63° WNW 06:40:49 10° SSW
Kosmos-1675 3.9 06:33:18 10° SW 06:35:59 59° NW 06:45:46 10° NNE
GRACE-2 3.8 06:33:49 10° N 06:36:34 61° W 06:39:19 10° SSW
Okean 1-7 Rocket 4.1 06:32:33 10° NNW 06:36:39 39° W 06:40:43 10° SSW
GRACE-1 3.9 06:34:15 10° N 06:37:00 58° W 06:39:43 10° SSW
Nadezhda 3 Rocket 4.4 06:32:31 10° NNW 06:38:30 44° W 06:44:27 10° SSW
SPOT 3 Rocket 3.6 06:33:35 10° NNE 06:38:45 88° ESE 06:43:54 10° SSW
CORIOLIS 4.3 06:36:15 10° NNE 06:41:38 80° ESE 06:46:58 10° S
Cosmos 1943 3.3 06:37:29 10° SW 06:43:01 58° WNW 06:48:36 10° NNE
Cosmos 2056 Rocket 4.3 06:39:04 10° NW 06:43:33 31° W 06:47:59 10° SSW
MOS 1 4.3 06:42:04 10° NNE 06:47:44 80° WNW 06:53:22 10° SSW
USA 229 DEB 3.9 06:41:49 10° SSW 06:48:42 84° ESE 06:55:41 10° NE
USA 229 3.9 06:41:57 10° SSW 06:48:49 84° ESE 06:55:48 10° NE
